User: anonymous   Login
Location: Cuzcurrita-R�o Tir�n
(42.5415°N, 2.9642°W)
Time: 09:25:28
(UTC+00:00)
Language:

Cosmos 1503 Rocket - Orbit

View from above orbital plane
View from above orbital plane
View from above satellite
View from above satellite

Ground track
Ground track

The orbit data is extracted from the following two-line orbital elements,

1 14402U 83103B   21103.01690363  .00000001  00000-0  93972-5 0  9997
2 14402  74.0468 212.7406 0025905  69.5135 290.8795 14.36008075962689
Epoch (UTC): 13 April 2021 00:24:20
Eccentricity: 0.0025905
inclination: 74.0468°
perigee height: 753 km
apogee height: 790 km
right ascension of ascending node: 212.7406°
argument of perigee: 69.5135°
revolutions per day: 14.36008075
mean anomaly at epoch: 290.8795°
orbit number at epoch: 96268

The dashed part of the orbit path shows where the satellite is in the earth's shadow,  

DLR